TimeICT,TemperatureF,Dew PointF,Humidity,Sea Level PressureIn,VisibilityMPH,Wind Direction,Wind SpeedMPH,Gust SpeedMPH,PrecipitationIn,Events,Conditions,WindDirDegrees,DateUTC
12:00 AM,75.2,71.6,89,29.86,6.2,Calm,Calm,-,N/A,,Mostly Cloudy,0,2012-10-04 17:00:00
12:30 AM,75.2,71.6,89,29.86,6.2,Calm,Calm,-,N/A,,Mostly Cloudy,0,2012-10-04 17:30:00
1:00 AM,75,70,81,29.85,6,SSE,2.3,,,,Scattered Clouds,150,2012-10-04 18:00:00
1:00 AM,75.2,69.8,83,29.83,6.2,SSE,2.3,-,N/A,,Mostly Cloudy,150,2012-10-04 18:00:00
1:30 AM,75.2,71.6,89,29.86,6.2,South,3.5,-,N/A,,Mostly Cloudy,170,2012-10-04 18:30:00
2:00 AM,75.2,71.6,89,29.83,6.2,South,2.3,-,N/A,,Mostly Cloudy,180,2012-10-04 19:00:00
2:30 AM,75.2,71.6,89,29.83,6.2,ESE,2.3,-,N/A,,Mostly Cloudy,120,2012-10-04 19:30:00
3:00 AM,75.2,71.6,89,29.83,6.2,SE,3.5,-,N/A,,Mostly Cloudy,130,2012-10-04 20:00:00
3:30 AM,75.2,71.6,89,29.83,6.2,Calm,Calm,-,N/A,,Mostly Cloudy,0,2012-10-04 20:30:00
4:00 AM,75.2,71.6,89,29.83,6.2,Calm,Calm,-,N/A,,Mostly Cloudy,0,2012-10-04 21:00:00
4:30 AM,75.2,71.6,89,29.83,5.6,SSE,2.3,-,N/A,,Mostly Cloudy,150,2012-10-04 21:30:00
5:00 AM,75.2,71.6,89,29.86,5.6,South,6.9,-,N/A,,Mostly Cloudy,170,2012-10-04 22:00:00
5:30 AM,75.2,71.6,89,29.86,5.6,South,6.9,-,N/A,,Mostly Cloudy,180,2012-10-04 22:30:00
6:00 AM,75.2,71.6,89,29.89,5.6,South,9.2,-,N/A,,Mostly Cloudy,180,2012-10-04 23:00:00
6:30 AM,75.2,71.6,89,29.89,5.6,South,8.1,-,N/A,Rain,Light Rain,180,2012-10-04 23:30:00
7:00 AM,75,71,82,29.89,6,South,10.4,,,Rain,Light Rain,190,2012-10-05 00:00:00
7:00 AM,75.2,69.8,83,29.89,6.2,South,10.4,-,N/A,,Mostly Cloudy,190,2012-10-05 00:00:00
7:30 AM,75.2,69.8,83,29.92,4.3,South,8.1,-,N/A,Rain,Light Rain,180,2012-10-05 00:30:00
8:00 AM,75.2,71.6,89,29.92,6.2,South,6.9,-,N/A,,Mostly Cloudy,190,2012-10-05 01:00:00
8:30 AM,77.0,73.4,89,29.92,6.2,SSW,9.2,-,N/A,,Mostly Cloudy,210,2012-10-05 01:30:00
9:00 AM,78.8,75.2,89,29.95,6.2,SSW,6.9,-,N/A,,Mostly Cloudy,200,2012-10-05 02:00:00
9:30 AM,80.6,75.2,84,29.95,6.2,SSW,6.9,-,N/A,,Mostly Cloudy,200,2012-10-05 02:30:00
10:00 AM,82.4,77.0,84,29.92,6.2,SW,5.8,-,N/A,,Mostly Cloudy,230,2012-10-05 03:00:00
10:30 AM,82.4,77.0,84,29.92,6.2,WSW,4.6,-,N/A,,Mostly Cloudy,250,2012-10-05 03:30:00
11:00 AM,86.0,77.0,74,29.89,6.2,WSW,6.9,-,N/A,,Mostly Cloudy,250,2012-10-05 04:00:00
11:30 AM,86.0,77.0,74,29.89,6.2,WSW,6.9,-,N/A,,Mostly Cloudy,250,2012-10-05 04:30:00
12:00 PM,86.0,77.0,74,29.86,6.2,West,4.6,-,N/A,,Mostly Cloudy,260,2012-10-05 05:00:00
12:30 PM,87.8,77.0,70,29.86,6.2,WSW,6.9,-,N/A,,Mostly Cloudy,250,2012-10-05 05:30:00
1:00 PM,89,78,63,29.86,6,WSW,8.1,,,,Partly Cloudy,240,2012-10-05 06:00:00
1:00 PM,87.8,77.0,70,29.86,6.2,SW,6.9,-,N/A,,Mostly Cloudy,220,2012-10-05 06:00:00
1:30 PM,89.6,77.0,66,29.83,6.2,WSW,10.4,-,N/A,,Mostly Cloudy,240,2012-10-05 06:30:00
2:00 PM,89.6,77.0,66,29.83,6.2,WSW,10.4,-,N/A,,Mostly Cloudy,240,2012-10-05 07:00:00
2:30 PM,87.8,75.2,66,29.80,6.2,WSW,10.4,-,N/A,,Mostly Cloudy,240,2012-10-05 07:30:00
3:00 PM,87.8,75.2,66,29.80,6.2,WSW,10.4,-,N/A,,Mostly Cloudy,250,2012-10-05 08:00:00
3:30 PM,86.0,73.4,66,29.80,6.2,WSW,6.9,-,N/A,,Mostly Cloudy,240,2012-10-05 08:30:00
4:00 PM,86.0,71.6,62,29.80,6.2,West,10.4,-,N/A,,Mostly Cloudy,260,2012-10-05 09:00:00
4:30 PM,84.2,71.6,66,29.80,6.2,West,6.9,-,N/A,,Mostly Cloudy,260,2012-10-05 09:30:00
5:00 PM,84.2,71.6,66,29.80,6.2,West,5.8,-,N/A,,Mostly Cloudy,260,2012-10-05 10:00:00
5:30 PM,82.4,71.6,70,29.80,6.2,SSW,3.5,-,N/A,,Mostly Cloudy,210,2012-10-05 10:30:00
6:00 PM,82.4,71.6,70,29.80,6.2,SSW,3.5,-,N/A,,Mostly Cloudy,200,2012-10-05 11:00:00
6:30 PM,82.4,69.8,66,29.80,6.2,SW,3.5,-,N/A,,Mostly Cloudy,220,2012-10-05 11:30:00
7:00 PM,81,70,62,29.82,6,Calm,Calm,,,,Scattered Clouds,,2012-10-05 12:00:00
7:00 PM,80.6,69.8,70,29.80,6.2,Calm,Calm,-,N/A,,Mostly Cloudy,0,2012-10-05 12:00:00
7:30 PM,80.6,69.8,70,29.83,6.2,Calm,Calm,-,N/A,,Mostly Cloudy,0,2012-10-05 12:30:00
8:00 PM,80.6,69.8,70,29.86,6.2,Calm,Calm,-,N/A,,Mostly Cloudy,0,2012-10-05 13:00:00
8:30 PM,80.6,69.8,70,29.86,6.2,Calm,Calm,-,N/A,,Mostly Cloudy,0,2012-10-05 13:30:00
9:00 PM,80.6,71.6,74,29.89,6.2,Calm,Calm,-,N/A,,Mostly Cloudy,0,2012-10-05 14:00:00
9:30 PM,78.8,71.6,78,29.89,6.2,Calm,Calm,-,N/A,,Mostly Cloudy,0,2012-10-05 14:30:00
10:00 PM,78.8,69.8,74,29.89,6.2,East,3.5,-,N/A,,Mostly Cloudy,100,2012-10-05 15:00:00
10:30 PM,78.8,71.6,78,29.92,6.2,Calm,Calm,-,N/A,,Mostly Cloudy,0,2012-10-05 15:30:00
11:00 PM,80.6,71.6,74,29.92,6.2,SW,3.5,-,N/A,,Mostly Cloudy,220,2012-10-05 16:00:00
11:30 PM,78.8,71.6,78,29.89,6.2,Calm,Calm,-,N/A,,Mostly Cloudy,0,2012-10-05 16:30:00